Weather WX

World > North America > United States > North Carolina

Viewmont, North Carolina Regional Weather

Lat: 35.75N, Lon: 81.33W
Wx Zone: NCZ056
Warning FLW WEATHER ALERT - (More Info. Click Here) Warning
Feedback

Viewmont, NC Regional Weather

Expires:201907171100;;775306
ASUS42 KRAH 171010
RWRRAH
NORTH CAROLINA WEATHER ROUNDUP
NATIONAL WEATHER SERVICE RALEIGH NC
600 AM EDT WED JUL 17 2019

NOTE: "FAIR" INDICATES FEW OR NO CLOUDS BELOW 12,000 FEET WITH NO
SIGNIFICANT WEATHER AND/OR OBSTRUCTIONS TO VISIBILITY.


NCZ001-053-055-056-065-067-171100-
WESTERN NORTH CAROLINA
  
CITY           SKY/WX    TMP DP  RH WIND       PRES   REMARKS
ASHEVILLE      FAIR      67  63  87 CALM      30.17S                  
JEFFERSON      FAIR      69  61  75 W3        30.20S                  
MORGANTON      FOG       65  63  93 CALM      30.13R VSB 1/2          
HICKORY        FAIR      72  69  90 CALM      30.09R                  
WILKESBORO     NOT AVBL                                               
RUTHERFORDTON  NOT AVBL                                               
MOUNT AIRY     FAIR      71  69  91 CALM      30.10S                  
BOONE          FAIR      61  61 100 CALM      30.21S                  
$$
 

SKY/WX - Weather  TMP - Temperature  DP - Dew Point  RH - Relative Humidity
WIND - Wind Direction/Speed PRES - Barometric Pressure VSB - Visibility
WCI - Wind Chill Index E13G22 Wind - East Wind 13 mph/Gusts of 22 mph